This is the latest recevied weather packets stored in our database for station/object DM4XI-13. If no packets are shown the sender has not sent any weather packets the latest 10 day(s).
| Time | Temp. | Humidity | Pressure | Rain* | Wind** | Luminosity | Snow |
|---|---|---|---|---|---|---|---|
| 1778130273 | 10° C | 91% | 1008.6 hPa | 0 mm | 0.45 m/s, 262° | 71 W/m² | - |
| 1778130212 | 10° C | 91% | 1008.6 hPa | 0 mm | 0.45 m/s, 271° | 69 W/m² | - |
| 1778130151 | 10° C | 91% | 1008.5 hPa | 0 mm | 0.89 m/s, 193° | 65 W/m² | - |
| 1778130090 | 10° C | 91% | 1008.4 hPa | 0 mm | 0.89 m/s, 183° | 61 W/m² | - |
| 1778130029 | 10° C | 92% | 1008.4 hPa | 0 mm | 0.45 m/s, 164° | 57 W/m² | - |
| 1778129968 | 10° C | 93% | 1008.4 hPa | 0 mm | 0.45 m/s, 186° | 55 W/m² | - |
| 1778129907 | 10° C | 92% | 1008.6 hPa | 0 mm | 1.34 m/s, 210° | 55 W/m² | - |
| 1778129846 | 10° C | 92% | 1008.5 hPa | 0 mm | 0 m/s | 57 W/m² | - |
| 1778129786 | 10° C | 92% | 1008.4 hPa | 0 mm | 1.34 m/s, 178° | 56 W/m² | - |
| 1778129724 | 10° C | 92% | 1008.6 hPa | 0 mm | 1.34 m/s, 176° | 55 W/m² | - |
| 1778129663 | 10° C | 92% | 1008.4 hPa | 0 mm | 0.45 m/s, 187° | 54 W/m² | - |
| 1778129602 | 10° C | 92% | 1008.5 hPa | 0 mm | 0.89 m/s, 182° | 54 W/m² | - |
| 1778129541 | 10° C | 92% | 1008.4 hPa | 0 mm | 0.89 m/s, 186° | 54 W/m² | - |
| 1778129480 | 10° C | 92% | 1008.4 hPa | 0 mm | 0 m/s | 53 W/m² | - |
| 1778129419 | 10° C | 92% | 1008.6 hPa | 0 mm | 0.45 m/s, 180° | 52 W/m² | - |
| 1778129358 | 10° C | 91% | 1008.6 hPa | 0 mm | 1.34 m/s, 204° | 51 W/m² | - |
| 1778129297 | 10° C | 91% | 1008.4 hPa | 0 mm | 0.45 m/s, 201° | 49 W/m² | - |
| 1778129236 | 10° C | 91% | 1008.5 hPa | 0 mm | 1.34 m/s, 190° | 48 W/m² | - |
| 1778129175 | 10° C | 90% | 1008.3 hPa | 0 mm | 0.45 m/s, 194° | 45 W/m² | - |
| 1778129114 | 10° C | 91% | 1008.4 hPa | 0 mm | 1.79 m/s, 181° | 42 W/m² | - |
| 1778129052 | 10° C | 91% | 1008.4 hPa | 0 mm | 1.34 m/s, 172° | 41 W/m² | - |
| 1778128992 | 10° C | 91% | 1008.3 hPa | 0 mm | 1.34 m/s, 190° | 40 W/m² | - |
| 1778128930 | 10° C | 91% | 1008.3 hPa | 0 mm | 0.89 m/s, 166° | 40 W/m² | - |
| 1778128869 | 10° C | 91% | 1008.3 hPa | 0 mm | 0.45 m/s, 176° | 40 W/m² | - |
| 1778128809 | 10° C | 91% | 1008.5 hPa | 0 mm | 0.45 m/s, 178° | 40 W/m² | - |
* Rain latest hour (hover to see other rain measurements)
** Current wind speed in m/s (hover to see current wind gust speed)